Temp
17 18 18 17 14 11 13 15 18 18 20 23 23 23 22 23 23 20 23 23 22 21 20 19 19 19 18 18 18 18 18 17 17 17 17 17 17 17 16 16 16 16 17 16 17 16 16 15 15
17 17 17 17 12 13 15 17 19 19 21 22 22 24 22 22 22 22 22 21 21 21 21 19 19 19 18 18 18 18 17 17 17 17 17 17 17 17 16 16 15 16 16 16 16 16 15 15 15
17 17 17 12 9 12 14 17 17 20 22 21 21 23 24 22 22 23 22 22 21 21 20 19 19 19 18 18 18 18 17 17 17 16 16 16 17 16 16 16 15 15 16 15 15 15 15 15 15
16 17 16 12 13 14 16 17 18 18 22 23 23 22 22 21 22 22 22 22 21 20 19 19 18 18 18 18 18 17 17 17 17 16 16 16 16 16 17 16 15 16 16 16 15 15 15 15 15
16 16 11 13 13 16 18 19 20 18 21 22 22 21 20 20 21 22 21 21 20 19 19 19 18 18 18 18 17 17 17 16 16 16 16 16 15 15 16 16 15 16 16 16 15 16 15 16 15
15 14 11 12 14 16 16 20 20 20 21 22 21 19 18 20 21 21 21 20 20 20 19 18 18 18 18 17 17 16 16 16 16 16 16 15 15 14 15 16 16 16 16 16 16 15 15 15 15
13 10 11 13 13 15 18 20 19 19 19 21 22 19 19 19 20 20 20 20 19 19 19 19 18 17 17 17 16 16 16 15 15 15 15 15 15 14 15 16 15 16 16 16 15 15 15 14 14
16 10 13 13 13 14 18 18 20 19 19 22 22 19 18 19 18 19 20 18 18 18 18 18 18 17 17 16 16 16 15 15 15 15 15 15 14 13 14 15 15 16 16 16 14 14 14 14 14
16 10 10 13 15 15 18 16 19 21 20 20 21 21 20 20 20 20 18 17 17 17 17 17 17 17 16 16 16 15 15 15 15 15 15 14 14 14 14 15 15 16 16 15 14 13 14 14 14
12 10 12 12 15 15 16 16 18 19 19 18 18 19 20 20 20 20 20 19 19 18 17 17 17 17 16 16 15 15 14 14 14 14 14 14 14 13 14 14 15 15 15 14 14 13 13 14 13
13 12 13 15 16 16 15 16 18 17 15 16 16 17 18 20 20 20 20 20 19 19 18 17 17 17 17 15 15 14 14 14 14 14 14 14 13 13 13 13 14 15 14 14 13 13 14 13 13
13 14 15 16 16 15 15 16 15 14 14 14 12 13 16 15 15 12 13 18 20 19 19 18 17 17 17 16 15 15 14 13 14 14 14 14 13 13 13 13 14 15 14 13 13 13 13 13 13
12 14 14 14 15 15 15 15 13 12 12 13 12 9 10 12 12 12 12 14 15 18 19 18 17 17 16 16 15 14 14 14 14 14 14 13 14 13 13 13 13 14 14 13 13 13 13 13 13
13 13 12 14 14 14 13 13 13 10 10 9 11 5 4 6 8 11 14 12 13 14 15 18 18 18 17 16 15 15 14 14 14 14 13 13 13 13 13 12 13 12 12 13 13 13 13 13 13
13 12 12 11 11 10 12 8 6 7 6 4 4 5 5 4 5 5 7 9 9 11 14 15 16 18 17 17 16 15 15 14 13 13 13 13 13 13 12 13 13 12 11 12 13 13 13 13 12
10 9 9 10 9 11 12 6 5 5 4 3 2 2 3 5 3 4 6 8 10 11 13 14 16 16 18 17 16 15 14 14 14 13 13 13 13 13 12 13 13 12 11 12 12 13 13 13 12
6 7 9 9 8 7 7 6 4 3 3 2 1 1 0 1 5 5 6 7 7 9 10 13 14 16 16 18 16 15 14 14 14 14 13 13 13 12 12 12 12 12 10 11 12 13 13 13 12
6 6 7 7 6 6 4 2 3 2 1 1 0 -0 -1 -1 -1 2 4 6 7 7 9 12 13 14 14 15 16 14 13 13 13 14 13 13 13 12 12 12 12 12 11 12 12 13 13 12 12
5 5 4 4 6 6 3 1 1 1 0 -0 -1 -1 -1 -1 -1 0 2 4 6 7 8 10 12 13 14 14 14 14 14 14 13 13 13 13 13 13 12 13 12 13 12 13 12 12 13 12 12
3 3 2 4 5 5 2 0 1 1 0 -1 -1 -2 -2 -1 -2 -1 0 1 2 4 6 7 9 12 13 13 14 14 13 15 13 13 13 13 13 13 12 13 14 13 13 13 12 12 12 12 12
1 2 2 2 3 4 3 1 0 1 0 -1 -2 -2 -2 -2 -2 -2 -2 -1 -0 1 4 5 8 10 12 13 13 14 14 14 14 14 14 13 12 13 12 13 14 13 14 13 13 12 12 12 12
1 3 1 1 1 1 4 1 -1 -0 -1 -1 -2 -3 -3 -3 -3 -3 -2 -2 -2 -1 1 3 5 8 11 12 13 13 14 13 16 14 14 13 12 12 12 13 12 13 14 14 13 13 13 12 12
0 2 -0 1 1 1 3 -1 -2 -1 -2 -2 -3 -4 -4 -4 -3 -4 -3 -3 -2 -1 -1 1 4 7 9 10 12 12 13 13 14 13 13 13 13 12 12 12 12 13 14 13 12 12 12 13 13
1 1 -0 0 1 0 3 -0 -3 -3 -3 -3 -3 -4 -5 -4 -4 -4 -3 -3 -3 -2 -1 -0 3 5 7 9 12 12 13 13 13 13 13 13 13 12 12 12 11 12 13 13 11 12 12 13 13
0 -1 0 1 -0 0 0 -2 -3 -3 -3 -3 -4 -5 -5 -4 -4 -4 -4 -4 -3 -3 -2 -1 1 4 6 7 10 12 12 12 13 13 13 12 12 12 13 12 11 12 12 12 11 11 11 12 12
-1 -1 -1 -1 1 -0 -1 -3 -3 -4 -4 -4 -4 -4 -4 -3 -3 -4 -4 -4 -4 -3 -3 -2 -1 1 3 5 8 10 12 12 12 13 13 13 13 13 13 12 12 11 11 12 10 10 11 12 12
-2 -2 -1 -2 1 -1 -3 -3 -1 -2 -3 -3 -3 -3 -3 -4 -3 -3 -4 -4 -4 -4 -3 -3 -1 -0 1 3 5 8 11 10 11 12 13 14 13 13 14 13 13 12 11 11 11 11 11 11 12
-1 1 -0 0 -1 -3 -4 -4 -5 -4 -4 -3 -3 -3 -3 -3 -2 -3 -3 -4 -4 -4 -4 -3 -2 -1 0 1 3 6 9 10 11 12 12 13 12 12 12 13 13 12 12 12 11 11 11 11 11
-3 -3 -2 -2 -1 -2 -4 -5 -3 -4 -3 -4 -3 -3 -3 -3 -3 -3 -3 -3 -4 -3 -3 -3 -2 -2 -0 1 1 4 7 9 10 12 12 12 12 12 11 12 12 12 12 12 12 11 11 11 11
-2 -3 -2 -4 -3 -2 -4 -7 -3 -4 -3 -3 -3 -3 -3 -3 -3 -3 -3 -2 -3 -2 -3 -3 -3 -2 -1 -0 0 1 3 6 9 11 12 12 13 12 11 12 12 12 12 13 11 12 11 12 12
Height
1492 1493 1493 1495 1508 1512 1512 1500 1487 1484 1479 1472 1469 1472 1467 1461 1461 1479 1465 1467 1470 1472 1473 1476 1480 1481 1483 1485 1487 1489 1492 1495 1497 1500 1503 1505 1507 1509 1512 1515 1518 1519 1521 1522 1525 1528 1531 1534 1536
1492 1493 1495 1495 1515 1523 1508 1492 1488 1484 1478 1468 1464 1461 1462 1458 1457 1459 1464 1468 1469 1472 1474 1476 1479 1481 1483 1484 1487 1490 1492 1494 1498 1500 1502 1505 1507 1509 1513 1516 1520 1521 1522 1524 1527 1530 1533 1535 1538
1493 1495 1496 1501 1518 1519 1510 1491 1488 1479 1470 1466 1464 1459 1459 1457 1457 1460 1460 1464 1468 1472 1474 1476 1479 1481 1483 1484 1486 1489 1492 1494 1497 1501 1503 1505 1507 1510 1514 1517 1521 1523 1524 1525 1528 1531 1533 1536 1539
1494 1497 1498 1507 1510 1503 1496 1490 1485 1481 1468 1464 1463 1459 1458 1459 1458 1460 1460 1464 1467 1471 1474 1477 1479 1481 1483 1484 1486 1488 1492 1494 1497 1501 1503 1505 1507 1510 1513 1518 1522 1524 1525 1526 1529 1532 1533 1537 1540
1496 1496 1507 1508 1504 1495 1490 1488 1484 1484 1478 1470 1464 1461 1461 1462 1461 1462 1464 1467 1470 1472 1474 1477 1480 1482 1484 1485 1486 1488 1492 1495 1497 1501 1503 1505 1508 1511 1515 1518 1522 1524 1526 1527 1530 1532 1534 1538 1542
1496 1498 1512 1515 1503 1495 1491 1488 1486 1484 1480 1474 1467 1467 1466 1465 1465 1466 1468 1470 1471 1472 1475 1478 1481 1483 1484 1485 1486 1489 1491 1495 1498 1501 1504 1507 1508 1510 1516 1519 1522 1525 1526 1528 1531 1533 1536 1540 1543
1497 1504 1511 1507 1503 1497 1491 1489 1486 1483 1481 1476 1474 1471 1468 1467 1469 1470 1472 1474 1475 1475 1476 1478 1481 1483 1484 1485 1486 1489 1492 1495 1498 1501 1504 1506 1508 1510 1518 1520 1522 1524 1527 1529 1532 1533 1537 1541 1545
1496 1500 1506 1506 1507 1503 1491 1489 1487 1485 1480 1479 1476 1475 1474 1472 1472 1475 1477 1477 1478 1480 1480 1480 1481 1482 1483 1484 1486 1489 1492 1495 1498 1501 1503 1506 1509 1512 1518 1520 1522 1525 1527 1530 1533 1535 1538 1542 1547
1496 1507 1514 1505 1500 1496 1490 1491 1486 1482 1480 1481 1479 1476 1474 1474 1476 1477 1478 1478 1479 1480 1481 1481 1480 1482 1484 1484 1486 1489 1492 1495 1498 1502 1505 1507 1509 1513 1518 1519 1523 1526 1529 1530 1534 1537 1540 1544 1548
1496 1508 1504 1499 1495 1493 1491 1489 1485 1483 1479 1483 1484 1482 1479 1477 1477 1477 1477 1477 1478 1478 1478 1480 1479 1480 1482 1484 1485 1488 1491 1494 1497 1500 1503 1505 1508 1512 1516 1522 1523 1527 1530 1532 1535 1538 1542 1545 1549
1495 1501 1497 1494 1491 1491 1489 1488 1487 1486 1488 1489 1490 1485 1481 1478 1477 1476 1476 1477 1476 1478 1479 1478 1478 1480 1480 1482 1482 1485 1488 1492 1494 1497 1501 1504 1505 1511 1516 1520 1524 1527 1531 1533 1536 1538 1542 1546 1549
1498 1494 1495 1493 1490 1490 1488 1489 1493 1494 1500 1495 1493 1488 1479 1476 1481 1483 1481 1478 1473 1474 1475 1475 1475 1475 1478 1480 1482 1483 1485 1489 1492 1495 1498 1502 1505 1508 1514 1520 1523 1526 1529 1531 1535 1538 1542 1546 1551
1493 1493 1493 1491 1489 1490 1488 1488 1492 1496 1495 1490 1489 1485 1480 1481 1480 1479 1477 1476 1478 1480 1475 1472 1472 1474 1476 1477 1479 1481 1483 1486 1490 1493 1496 1500 1501 1506 1511 1514 1518 1523 1527 1531 1535 1538 1542 1547 1551
1492 1493 1492 1490 1488 1488 1488 1491 1490 1501 1495 1486 1481 1489 1489 1484 1482 1476 1471 1470 1471 1472 1478 1475 1471 1471 1473 1474 1475 1478 1481 1485 1489 1491 1494 1497 1500 1502 1507 1511 1513 1518 1524 1530 1534 1537 1542 1547 1551
1493 1494 1492 1491 1490 1489 1486 1500 1512 1506 1494 1489 1487 1485 1486 1487 1486 1483 1481 1474 1469 1464 1465 1474 1475 1471 1470 1472 1473 1474 1477 1482 1485 1489 1492 1494 1495 1498 1502 1504 1512 1514 1521 1530 1534 1538 1542 1547 1551
1498 1499 1505 1495 1494 1491 1487 1512 1513 1508 1497 1495 1492 1486 1484 1482 1486 1484 1479 1473 1464 1460 1460 1462 1469 1472 1468 1469 1470 1471 1473 1476 1481 1485 1489 1491 1492 1497 1499 1506 1506 1509 1516 1524 1530 1536 1541 1546 1550
1511 1517 1509 1503 1500 1500 1498 1510 1515 1511 1502 1499 1496 1490 1487 1483 1476 1474 1472 1468 1464 1459 1457 1460 1464 1466 1468 1467 1469 1469 1470 1472 1476 1480 1484 1487 1492 1493 1499 1502 1503 1507 1515 1524 1529 1535 1540 1543 1548
1525 1519 1514 1512 1509 1504 1511 1519 1518 1515 1509 1507 1503 1495 1490 1488 1484 1477 1473 1467 1464 1458 1453 1454 1457 1465 1466 1469 1465 1468 1469 1472 1473 1476 1480 1485 1485 1492 1495 1503 1510 1513 1518 1524 1528 1534 1540 1543 1547
1530 1526 1526 1521 1513 1511 1517 1521 1522 1518 1508 1506 1504 1498 1493 1492 1489 1480 1474 1468 1463 1459 1453 1451 1452 1456 1459 1464 1465 1462 1461 1464 1468 1472 1477 1482 1485 1488 1496 1500 1507 1513 1518 1522 1527 1532 1538 1540 1544
1534 1533 1531 1520 1514 1514 1517 1524 1522 1519 1519 1516 1510 1502 1498 1492 1483 1479 1472 1468 1463 1459 1455 1451 1449 1448 1452 1457 1460 1464 1461 1460 1465 1469 1472 1478 1481 1488 1493 1496 1506 1513 1517 1520 1524 1528 1532 1537 1541
1538 1533 1529 1529 1518 1512 1510 1519 1520 1521 1518 1515 1512 1511 1504 1498 1491 1484 1476 1472 1466 1460 1455 1452 1449 1446 1448 1451 1454 1459 1462 1462 1464 1465 1467 1472 1477 1484 1489 1491 1496 1505 1512 1516 1520 1524 1527 1531 1538
1538 1532 1532 1528 1523 1520 1503 1520 1525 1521 1520 1519 1518 1514 1508 1501 1494 1488 1480 1474 1470 1464 1458 1453 1447 1444 1442 1446 1449 1451 1454 1455 1456 1455 1458 1465 1474 1479 1481 1487 1492 1501 1507 1513 1517 1521 1524 1528 1533
1541 1531 1525 1515 1512 1511 1504 1525 1538 1530 1525 1524 1523 1518 1514 1507 1498 1491 1485 1479 1475 1467 1459 1453 1447 1442 1440 1439 1445 1445 1449 1452 1454 1458 1460 1459 1465 1472 1477 1484 1490 1497 1501 1509 1513 1516 1520 1525 1530
1535 1527 1508 1501 1503 1508 1491 1512 1541 1536 1537 1532 1528 1524 1519 1511 1501 1495 1489 1482 1475 1468 1461 1454 1447 1441 1437 1436 1439 1441 1445 1447 1450 1452 1456 1456 1460 1466 1473 1480 1486 1491 1496 1501 1509 1513 1516 1521 1525
1529 1527 1509 1495 1503 1503 1503 1525 1545 1545 1541 1539 1535 1531 1525 1516 1505 1498 1489 1481 1474 1467 1462 1456 1447 1440 1436 1433 1434 1435 1438 1442 1443 1447 1449 1453 1456 1459 1464 1471 1478 1485 1490 1493 1501 1505 1508 1513 1518
1536 1538 1529 1517 1496 1505 1517 1536 1549 1548 1545 1543 1539 1535 1527 1518 1511 1505 1497 1487 1478 1470 1465 1458 1448 1441 1436 1431 1429 1430 1431 1428 1437 1440 1444 1446 1449 1452 1457 1464 1471 1478 1484 1489 1495 1500 1503 1507 1510
1539 1535 1527 1523 1499 1516 1537 1546 1540 1546 1547 1543 1538 1531 1525 1521 1516 1510 1501 1492 1482 1474 1468 1459 1449 1442 1437 1432 1427 1427 1429 1428 1432 1436 1443 1442 1445 1449 1454 1458 1464 1469 1477 1482 1488 1494 1497 1500 1504
1544 1535 1527 1520 1519 1535 1548 1553 1561 1553 1547 1545 1538 1532 1528 1524 1519 1511 1504 1497 1487 1479 1471 1460 1451 1444 1438 1433 1427 1424 1424 1426 1429 1431 1434 1435 1439 1445 1448 1451 1457 1462 1469 1475 1481 1487 1492 1493 1497
1553 1547 1540 1535 1532 1538 1552 1566 1560 1557 1550 1548 1542 1536 1531 1524 1518 1511 1505 1499 1491 1480 1471 1459 1451 1444 1438 1433 1426 1421 1420 1422 1423 1425 1429 1429 1434 1439 1442 1446 1450 1454 1460 1465 1472 1479 1485 1487 1491
1561 1558 1548 1554 1556 1549 1559 1577 1559 1556 1552 1549 1543 1538 1531 1524 1517 1511 1506 1498 1491 1483 1473 1461 1452 1445 1440 1435 1429 1423 1418 1417 1417 1417 1415 1423 1428 1432 1436 1439 1438 1447 1451 1456 1462 1469 1476 1480 1484
Wind_Speed
4 2 5 3 4 5 5 5 3 7 8 6 28 9 12 5 6 4 14 19 18 21 24 24 24 23 23 23 23 23 23 25 24 25 27 26 30 30 29 28 26 28 26 27 29 23 19 18 19
1 6 5 4 4 1 4 3 4 4 15 35 30 8 1 2 6 13 21 21 15 21 22 24 24 23 22 23 23 23 25 25 26 26 27 28 30 29 28 27 26 25 24 25 26 23 21 21 19
4 5 2 4 3 5 4 2 6 22 36 29 6 7 8 5 10 25 19 21 19 20 21 24 23 22 22 22 23 24 25 26 26 27 28 29 30 27 28 27 25 24 24 25 24 22 22 21 22
4 3 3 3 7 5 4 7 10 13 26 20 9 2 4 4 14 13 23 20 19 18 21 22 22 21 21 21 22 24 26 27 27 28 29 31 32 29 28 28 25 23 23 24 25 25 25 26 24
2 2 3 1 5 4 3 8 18 8 16 19 26 3 5 4 1 12 18 14 15 16 20 21 21 20 19 20 23 25 26 27 28 28 29 31 31 28 28 28 25 22 23 25 27 28 28 26 23
3 3 3 3 6 4 5 12 14 8 21 26 24 4 3 3 7 16 14 13 9 11 19 20 19 18 19 20 21 25 27 28 28 28 29 30 31 31 30 28 25 24 24 27 30 31 28 25 21
5 4 3 3 4 5 2 12 10 11 13 17 26 3 2 6 14 15 15 12 11 15 16 18 18 18 18 19 21 24 27 29 29 29 30 31 31 31 31 29 25 26 29 31 34 31 28 24 20
2 3 1 2 2 5 2 18 13 20 20 17 23 4 2 7 13 12 9 12 13 16 14 15 18 19 20 20 21 24 27 29 29 29 30 32 30 32 32 29 25 27 31 35 36 31 28 23 18
3 4 2 3 2 5 18 7 25 16 12 11 20 16 5 8 7 5 12 16 16 15 15 16 17 19 20 20 22 24 27 28 28 27 29 31 30 33 31 29 26 30 34 37 34 30 27 21 18
4 3 5 5 4 6 13 8 12 8 18 12 25 15 4 3 6 10 13 16 15 17 17 16 18 19 20 21 24 26 28 28 30 31 32 32 36 35 30 26 24 32 37 37 35 31 26 22 20
1 4 3 8 12 10 6 8 10 15 11 26 28 25 8 10 9 13 14 17 17 15 16 17 18 19 21 24 27 29 31 32 33 33 34 34 34 34 30 27 27 35 39 38 36 32 26 24 21
4 5 2 7 13 6 3 5 17 23 16 26 32 26 18 20 5 14 12 19 21 22 20 19 21 21 23 24 28 31 33 35 36 35 34 36 36 34 32 32 29 35 40 39 37 32 27 24 21
5 2 9 11 7 8 6 6 14 27 24 26 29 36 35 28 23 14 10 12 21 26 25 23 21 23 25 27 29 32 35 36 37 37 36 35 31 34 36 33 35 39 41 40 37 33 29 23 24
7 8 9 3 14 9 6 10 7 25 20 30 30 35 34 34 31 28 19 14 13 23 30 28 25 22 25 28 30 33 35 37 38 38 36 37 36 39 40 38 36 38 40 40 37 35 30 26 23
12 5 4 10 21 7 12 11 14 22 27 34 35 35 34 37 33 32 30 25 18 17 28 34 33 28 27 27 30 34 35 38 38 39 38 37 38 38 39 37 36 41 46 40 37 35 32 28 25
6 5 4 5 16 10 11 3 14 25 30 30 32 39 40 38 37 33 31 28 22 12 22 34 42 37 31 31 31 34 36 39 40 39 40 38 39 30 25 32 41 44 48 43 37 36 33 27 25
7 4 4 7 10 6 9 2 18 27 30 30 31 34 38 44 41 39 34 30 28 18 10 25 37 42 39 33 33 35 37 38 41 41 42 40 34 26 24 31 32 33 49 47 40 38 33 31 28
8 6 4 1 8 9 10 6 11 23 28 27 30 33 38 39 42 41 36 30 28 23 3 16 30 37 39 39 36 34 37 38 41 41 41 39 36 31 27 26 28 30 41 43 42 39 35 30 27
10 7 6 8 7 12 9 10 11 22 31 31 32 35 36 38 37 41 37 32 28 23 13 5 22 30 29 40 42 41 40 45 40 41 40 40 37 35 35 31 27 31 38 42 44 40 37 32 31
12 5 5 9 17 12 8 9 8 20 23 26 31 35 37 38 45 45 42 37 33 28 22 16 8 23 29 33 45 39 40 41 41 41 41 45 40 41 40 42 34 34 38 41 45 43 39 36 33
12 8 8 13 16 10 6 3 11 15 25 30 33 32 35 38 38 41 45 44 37 33 26 24 17 10 24 32 35 41 33 35 39 41 39 46 45 44 40 37 43 42 44 44 46 46 45 42 36
15 9 18 20 10 4 3 3 11 17 17 24 32 35 36 38 40 40 41 43 41 39 29 26 21 9 12 25 25 41 40 41 42 45 45 49 46 43 46 35 46 38 37 43 46 48 49 46 40
16 17 21 20 17 10 5 5 8 9 16 19 27 33 36 37 39 40 41 39 38 35 33 28 22 11 5 12 26 26 43 42 36 40 46 51 53 53 45 44 45 45 46 43 42 47 46 47 43
21 16 26 16 10 8 10 6 7 7 14 15 24 31 34 38 39 42 39 38 39 36 35 29 24 16 8 5 22 24 33 42 40 37 44 50 56 52 47 47 49 49 50 53 47 42 43 46 49
21 17 5 4 3 2 11 13 4 11 12 18 22 27 30 36 37 40 44 44 40 41 38 34 26 21 15 8 9 23 22 38 43 40 44 48 54 55 52 50 50 54 56 60 56 46 41 42 48
14 3 4 7 5 4 9 6 4 10 19 20 21 23 29 33 36 36 41 42 41 40 39 36 32 25 19 14 8 14 30 20 30 44 45 46 49 49 47 51 49 50 57 60 55 53 45 44 43
11 9 15 5 10 5 4 5 8 16 17 24 25 27 29 32 34 33 36 42 41 41 37 35 34 29 23 19 13 9 18 12 24 40 45 39 45 45 43 48 50 47 55 56 54 52 50 42 46
5 11 6 5 6 4 4 4 8 19 15 16 22 27 29 29 32 33 33 38 41 40 40 36 35 32 29 21 15 12 10 21 25 26 44 40 41 46 46 49 53 49 55 54 51 46 50 51 43
7 7 5 2 6 3 2 4 7 11 14 13 21 25 27 30 32 33 33 33 39 45 43 41 39 36 33 25 18 12 8 11 16 31 41 39 42 46 41 49 53 54 58 59 57 52 48 47 40
7 5 5 3 7 4 2 2 5 9 17 18 20 25 28 30 32 33 34 36 37 43 47 46 43 42 34 31 22 18 13 8 10 21 16 27 41 43 45 49 48 53 58 60 59 61 53 49 48
Wind_Direction
313 170 132 115 53 57 269 272 267 299 322 281 305 293 258 223 161 201 149 162 172 187 177 178 181 180 178 178 177 178 180 174 176 170 169 167 164 162 160 159 156 152 149 146 151 149 147 144 143
280 138 124 103 94 82 278 256 329 281 291 300 303 318 205 184 158 151 160 169 172 179 179 178 180 181 181 180 181 181 182 180 178 175 175 171 167 163 162 159 158 156 152 149 151 151 148 145 146
162 144 114 100 131 199 231 261 299 316 314 300 281 257 228 186 174 155 156 162 165 180 182 180 181 183 185 184 183 184 183 182 182 180 178 174 167 165 168 160 163 160 155 154 157 153 150 150 150
133 161 74 94 236 255 240 316 306 320 330 347 305 276 95 309 149 160 154 155 160 180 182 180 181 185 186 186 186 186 185 182 185 184 181 177 170 166 172 165 167 163 159 160 156 153 153 152 153
114 98 69 259 258 255 273 313 305 310 331 355 348 37 2 86 133 161 146 151 164 174 176 178 181 187 189 188 186 187 186 185 186 185 182 180 172 169 175 169 169 165 164 158 156 156 154 156 154
72 75 63 251 260 287 315 308 318 338 344 353 358 7 351 203 198 154 157 154 154 175 172 177 181 189 190 190 187 187 188 188 187 187 186 182 176 174 181 175 171 167 166 161 157 156 156 155 155
113 90 211 258 289 331 293 355 332 327 334 350 8 45 229 170 162 165 165 167 165 171 175 181 185 189 189 191 192 190 190 190 189 189 186 184 182 177 187 174 168 170 164 160 158 158 157 156 152
166 89 289 273 329 299 277 334 316 337 315 343 16 347 296 199 180 175 180 175 171 174 183 191 192 191 190 190 195 194 192 193 192 193 190 187 181 175 184 172 166 164 165 161 159 159 161 160 151
178 70 233 272 319 266 308 358 323 334 303 44 29 24 91 210 191 199 197 189 183 189 196 204 202 196 196 192 193 194 195 196 194 193 193 187 177 183 180 169 165 165 165 163 163 165 163 160 150
109 117 226 209 247 277 314 307 322 348 353 33 16 25 22 239 196 230 229 218 216 210 209 214 208 203 200 196 194 193 193 194 192 194 191 188 182 184 178 173 170 166 168 167 165 169 166 161 154
84 190 225 275 287 316 308 359 351 1 23 357 1 3 321 231 234 239 245 247 251 235 233 220 209 211 210 200 196 193 194 193 195 196 195 192 188 188 185 179 170 168 170 169 168 172 169 161 158
346 242 84 322 325 355 348 4 74 38 7 14 38 55 55 49 302 335 291 245 250 237 233 225 210 214 212 209 201 197 196 196 198 198 199 195 197 190 189 188 181 174 175 176 174 174 169 161 166
188 22 347 325 345 35 360 11 93 29 21 24 37 41 44 42 30 22 345 267 250 263 246 232 218 215 213 211 207 203 201 201 200 202 205 200 205 198 193 196 190 177 179 181 176 175 171 171 174
317 324 324 12 356 30 12 29 66 1 31 32 28 33 35 31 23 19 10 352 237 243 252 246 230 227 219 217 213 208 206 204 206 206 206 205 209 204 204 203 201 201 180 180 178 176 174 178 182
302 341 8 13 352 21 351 46 12 26 40 38 26 16 17 24 17 15 8 4 343 238 227 243 243 232 226 221 216 214 208 206 207 209 210 209 211 211 213 207 207 195 181 184 181 179 180 181 185
11 55 28 329 15 344 3 72 12 22 42 36 27 19 12 9 12 10 7 1 358 299 223 223 240 237 232 222 217 216 210 207 209 210 211 213 213 204 208 214 208 197 178 183 179 187 180 187 189
12 333 334 319 29 352 44 62 19 26 37 32 24 20 13 7 4 6 5 3 359 352 250 225 228 237 233 226 221 217 214 211 210 212 211 212 212 193 203 201 188 194 186 180 187 185 188 187 193
312 315 316 0 329 352 81 63 29 31 40 32 22 19 14 8 3 1 0 1 359 1 321 226 219 232 233 229 224 218 217 214 214 213 213 212 207 194 179 196 196 189 189 190 190 189 193 192 191
6 342 343 329 336 341 92 71 40 31 34 26 20 17 12 7 359 1 1 360 359 2 2 261 221 221 216 229 222 216 212 211 211 214 214 215 201 197 183 186 199 192 189 190 192 193 197 196 197
12 350 324 303 339 329 122 88 41 45 40 32 20 15 10 2 3 1 0 1 359 358 355 349 276 216 215 217 229 222 219 218 217 209 211 208 202 196 192 186 191 199 201 197 197 200 197 203 207
339 280 320 306 313 278 144 94 26 19 31 24 21 12 11 6 360 359 358 1 357 356 356 352 334 260 221 220 225 222 219 210 207 214 210 208 202 198 201 194 197 196 204 203 202 204 207 206 205
313 333 321 297 296 243 51 280 24 2 21 22 13 10 5 360 0 359 359 358 359 356 351 353 349 304 234 221 228 223 221 212 225 217 208 210 203 203 194 198 193 199 203 209 208 210 213 214 209
308 318 293 270 259 249 236 91 340 6 13 9 8 4 1 358 359 357 358 359 354 357 355 352 352 337 269 220 225 218 224 228 229 219 211 208 207 209 208 206 198 198 199 214 214 217 216 222 222
308 315 300 267 249 241 216 116 25 17 13 2 5 2 356 355 356 1 359 359 355 2 359 354 352 356 330 276 210 222 223 222 226 219 206 211 212 212 215 213 208 203 204 214 213 221 227 225 222
343 345 319 329 133 337 74 70 64 26 17 13 4 360 357 2 360 357 359 356 359 1 1 357 353 352 348 335 237 227 212 228 224 229 214 214 210 215 216 215 210 204 206 212 215 223 227 230 226
315 310 302 321 358 84 42 68 58 40 23 13 5 359 4 6 6 358 359 356 1 360 358 360 356 351 347 350 311 243 229 236 229 229 223 219 217 220 220 215 215 215 213 215 220 225 228 230 226
319 336 304 247 259 63 34 48 68 22 23 13 6 5 7 4 0 359 359 3 1 360 355 2 1 354 349 347 355 288 238 238 247 222 232 230 226 221 222 222 218 219 214 215 221 225 223 232 231
317 313 340 352 351 67 30 60 5 350 4 358 359 2 359 1 359 357 358 1 5 0 360 12 9 0 353 347 357 347 264 236 219 228 225 227 226 219 224 225 217 218 214 217 223 225 230 227 223
349 355 334 241 20 32 66 52 334 337 343 335 344 349 346 344 348 355 358 359 5 10 6 11 18 9 0 348 354 350 310 253 226 232 235 232 232 229 231 228 221 219 221 220 220 223 228 233 234
12 344 331 60 356 11 76 232 332 338 342 335 330 342 350 349 341 346 1 5 2 7 9 11 18 18 10 1 345 353 337 295 257 245 238 235 236 241 231 227 228 228 225 223 224 223 229 231 225